User: anonymous   Login
Location: Unspecified
(0.0000°N, 0.0000°E)
Time: 02:07:13
(UTC+00:00)
Language:

ONEWEB-0634 - Orbit

View from above orbital plane
View from above orbital plane
View from above satellite
View from above satellite

Ground track
Ground track

The orbit is defined by the following mean orbital elements,

1 56075U          26145.55986564 +.00000000 +00000-0 +36583-3 0 00000
2 56075  87.8993 263.7382 0001990 110.1719 249.9625 13.15547199    01
Epoch (UTC): 25 May 2026 13:26:12
Eccentricity: 0.0001990
inclination: 87.8993°
perigee height: 1200 km
apogee height: 1203 km
right ascension of ascending node: 263.7382°
argument of perigee: 110.1719°
revolutions per day: 13.15547199
mean anomaly at epoch: 249.9625°

The dashed part of the orbit path shows where the satellite is in the earth's shadow,  

DLR